Phoenix Deer Valley, AZ

6:31 PM MST on November 22, 2019 (GMT -0700)
Phoenix-Deer Valley Municipal

Weather History for KDVT - September, 2019

Change the Weather History Date:

Wednesday, September 25, 2019

  Actual Average Record
Temperature  
Mean Temperature 78 °F -  
Max Temperature 87 °F 93 °F 102 °F (2002)
Min Temperature 70 °F 71 °F 57 °F (2017)
Cooling Degree Days 14    
Growing Degree Days 28 (Base 50)    
Moisture  
Dew Point 59 °F    
Average Humidity 54    
Maximum Humidity 71    
Minimum Humidity 35    
Precipitation  
Precipitation 0.00 in - - ()
Sea Level Pressure  
Sea Level Pressure 29.81 in    
Wind  
Wind Speed 5 mph ()    
Max Wind Speed 16 mph    
Max Gust Speed 26 mph    
Visibility 10.0 miles    
Events Thunderstorm    
Averages and records for this station are not official NWS values.
T = Trace of Precipitation, MM = Missing Value Source: Averaged Metar Reports

Daily Weather History Graph

Daily Weather History Graph

Search for Another Location

Airport or City:

Astronomy

Sep. 25, 2019 Rise Set
Actual Time 6:18 AM MST 6:21 PM MST
Civil Twilight 5:53 AM MST 6:45 PM MST
Nautical Twilight 5:24 AM MST 7:14 PM MST
Astronomical Twilight 4:55 AM MST 7:44 PM MST
Moon 2:31 AM MST (9/25) 4:42 PM MST (9/25)
Length of Visible Light 12h 52m
Length of Day
12h 02m
Waning Crescent, 13% of the Moon is Illuminated
Sep 25
Waning Crescent
Sep 28
New
Oct 5
First Quarter
Oct 13
Full
Oct 21
Last Quarter

Hourly Weather History & Observations

Time (MST) Temp. Heat Index Dew Point Humidity Pressure Visibility Wind Dir Wind Speed Gust Speed Precip Events Conditions
12:53 AM 73.0 °F - 60.1 °F 64% 29.79 in 10.0 mi Variable 3.5 mph - N/A   Clear
1:53 AM 73.0 °F - 60.1 °F 64% 29.79 in 10.0 mi Calm Calm - N/A   Scattered Clouds
2:53 AM 72.0 °F - 59.0 °F 64% 29.79 in 10.0 mi ENE 3.5 mph - N/A   Clear
3:53 AM 71.1 °F - 60.1 °F 68% 29.78 in 10.0 mi NNE 3.5 mph - N/A   Clear
4:53 AM 70.0 °F - 60.1 °F 71% 29.80 in 10.0 mi SE 4.6 mph - N/A   Clear
5:53 AM 71.1 °F - 59.0 °F 66% 29.81 in 10.0 mi North 3.5 mph - N/A   Clear
6:53 AM 72.0 °F - 59.0 °F 64% 29.83 in 10.0 mi Calm Calm - N/A   Clear
7:53 AM 75.0 °F - 59.0 °F 57% 29.83 in 10.0 mi ENE 3.5 mph - N/A   Clear
8:53 AM 78.1 °F - 59.0 °F 52% 29.84 in 10.0 mi East 5.8 mph - N/A   Clear
9:53 AM 79.0 °F - 59.0 °F 50% 29.86 in 10.0 mi ESE 6.9 mph - N/A   Clear
10:53 AM 82.0 °F 82.1 °F 59.0 °F 45% 29.85 in 10.0 mi East 9.2 mph - N/A   Clear
11:53 AM 84.0 °F 83.3 °F 57.0 °F 40% 29.84 in 10.0 mi SE 9.2 mph - N/A   Clear
12:53 PM 84.0 °F 83.5 °F 57.9 °F 41% 29.81 in 10.0 mi SE 12.7 mph 18.4 mph N/A   Partly Cloudy
1:53 PM 86.0 °F 84.7 °F 55.9 °F 36% 29.78 in 10.0 mi SE 11.5 mph - N/A   Clear
2:53 PM 86.0 °F 84.7 °F 55.9 °F 36% 29.76 in 10.0 mi SSE 8.1 mph - N/A   Mostly Cloudy
3:53 PM 86.0 °F 84.5 °F 55.0 °F 35% 29.75 in 10.0 mi SSE 6.9 mph - N/A   Mostly Cloudy
4:53 PM 87.1 °F 85.7 °F 55.9 °F 35% 29.73 in 10.0 mi SSW 5.8 mph - N/A   Clear
5:53 PM 84.9 °F 83.7 °F 55.9 °F 37% 29.74 in 10.0 mi SW 9.2 mph - N/A   Partly Cloudy
6:53 PM 81.0 °F 81.6 °F 60.1 °F 49% 29.76 in 10.0 mi West 8.1 mph - 0.00 in   Partly Cloudy
7:25 PM 81.0 °F 81.7 °F 61.0 °F 50% 29.82 in 10.0 mi NW 5.8 mph - N/A   Scattered Clouds
7:53 PM 81.0 °F 81.7 °F 61.0 °F 50% 29.77 in 10.0 mi NNW 5.8 mph - N/A   Partly Cloudy
8:53 PM 81.0 °F 81.6 °F 60.1 °F 49% 29.79 in 10.0 mi Calm Calm - N/A   Mostly Cloudy
9:53 PM 73.9 °F - 62.1 °F 66% 29.84 in 10.0 mi West 16.1 mph 26.5 mph N/A   Scattered Clouds
10:23 PM 72.0 °F - 61.0 °F 68% 29.93 in 10.0 mi West 15.0 mph - N/A Thunderstorm Partly Cloudy
10:38 PM 71.1 °F - 61.0 °F 70% 29.92 in 10.0 mi NW 10.4 mph - N/A   Partly Cloudy
10:53 PM 73.0 °F - 62.1 °F 68% 29.86 in 10.0 mi North 10.4 mph - N/A   Mostly Cloudy
11:53 PM 73.0 °F - 62.1 °F 68% 29.85 in 10.0 mi North 5.8 mph - N/A   Mostly Cloudy